iso_date,epoch_date,Year,Hour,Min,DOY,POS_DOY,Lat,Lon,BP,Ts,Ta,has_bp,has_ts,has_ta,BuoyID,Buoy_Type,Buoy_Owner,Logistics,Hemisphere
2015-01-08T19:00:02Z,1420743603,2015,19,0,8.7917,8.7767,-51.54306,-25.06222,983.8,4.8,-999.0,yes,yes,no,116126,BD2A3,AOML,AGULHAS,South
2015-01-08T19:59:57Z,1420747197,2015,20,0,8.8333,8.7767,-51.54306,-25.06222,984.1,4.8,-999.0,yes,yes,no,116126,BD2A3,AOML,AGULHAS,South
2015-01-08T21:00:00Z,1420750800,2015,21,0,8.875,8.8928,-51.5075,-25.07417,984.4,4.75,-999.0,yes,yes,no,116126,BD2A3,AOML,AGULHAS,South
2015-01-08T22:00:02Z,1420754403,2015,22,0,8.9167,8.8928,-51.5075,-25.07417,984.5,4.75,-999.0,yes,yes,no,116126,BD2A3,AOML,AGULHAS,South
2015-01-08T22:59:57Z,1420757997,2015,23,0,8.9583,8.9662,-51.48306,-25.10472,984.9,4.7,-999.0,yes,yes,no,116126,BD2A3,AOML,AGULHAS,South
2015-01-09T00:00:00Z,1420761600,2015,0,0,9.0,8.9662,-51.48139,-25.10278,985.2,4.65,-999.0,yes,yes,no,116126,BD2A3,AOML,AGULHAS,South
2015-01-09T01:00:02Z,1420765203,2015,1,0,9.0417,9.0377,-51.46222,-25.10944,985.5,4.65,-999.0,yes,yes,no,116126,BD2A3,AOML,AGULHAS,South
2015-01-09T01:59:57Z,1420768797,2015,2,0,9.0833,9.0501,-51.45139,-25.11806,985.9,4.6,-999.0,yes,yes,no,116126,BD2A3,AOML,AGULHAS,South
2015-01-09T03:00:00Z,1420772400,2015,3,0,9.125,9.1202,-51.43167,-25.14694,986.2,4.55,-999.0,yes,yes,no,116126,BD2A3,AOML,AGULHAS,South
2015-01-09T04:00:02Z,1420776003,2015,4,0,9.1667,9.1894,-51.40806,-25.15556,986.4,4.55,-999.0,yes,yes,no,116126,BD2A3,AOML,AGULHAS,South
2015-01-09T04:59:57Z,1420779597,2015,5,0,9.2083,9.1894,-51.40806,-25.15556,987.1,4.5,-999.0,yes,yes,no,116126,BD2A3,AOML,AGULHAS,South
2015-01-09T07:00:02Z,1420786803,2015,7,0,9.2917,9.291,-51.38778,-25.17583,989.0,4.35,-999.0,yes,yes,no,116126,BD2A3,AOML,AGULHAS,South
2015-01-09T07:59:57Z,1420790397,2015,8,0,9.3333,9.291,-51.38778,-25.17583,989.5,4.35,-999.0,yes,yes,no,116126,BD2A3,AOML,AGULHAS,South
2015-01-09T09:00:00Z,1420794000,2015,9,0,9.375,9.291,-51.38778,-25.17583,989.7,4.3,-999.0,yes,yes,no,116126,BD2A3,AOML,AGULHAS,South
2015-01-09T10:00:02Z,1420797603,2015,10,0,9.4167,9.3007,-51.36722,-25.19167,989.5,4.3,-999.0,yes,yes,no,116126,BD2A3,AOML,AGULHAS,South
2015-01-09T10:59:57Z,1420801197,2015,11,0,9.4583,9.445,-51.30778,-25.22556,989.0,4.4,-999.0,yes,yes,no,116126,BD2A3,AOML,AGULHAS,South
2015-01-09T12:00:00Z,1420804800,2015,12,0,9.5,9.4766,-51.29111,-25.25472,988.5,4.4,-999.0,yes,yes,no,116126,BD2A3,AOML,AGULHAS,South
2015-01-09T13:00:02Z,1420808403,2015,13,0,9.5417,9.4766,-51.29167,-25.25667,987.4,4.5,-999.0,yes,yes,no,116126,BD2A3,AOML,AGULHAS,South
2015-01-09T13:59:57Z,1420811997,2015,14,0,9.5833,9.6271,-51.22722,-25.27361,985.7,4.55,-999.0,yes,yes,no,116126,BD2A3,AOML,AGULHAS,South
2015-01-09T15:00:00Z,1420815600,2015,15,0,9.625,9.4766,-51.29167,-25.25667,983.7,4.55,-999.0,yes,yes,no,116126,BD2A3,AOML,AGULHAS,South
2015-01-09T16:00:02Z,1420819203,2015,16,0,9.6667,9.6271,-51.22722,-25.27361,980.4,4.5,-999.0,yes,yes,no,116126,BD2A3,AOML,AGULHAS,South
2015-01-09T16:59:57Z,1420822797,2015,17,0,9.7083,9.6982,-51.19139,-25.26528,976.9,4.5,-999.0,yes,yes,no,116126,BD2A3,AOML,AGULHAS,South
2015-01-09T18:00:00Z,1420826400,2015,18,0,9.75,9.7647,-51.16722,-25.28056,974.8,4.45,-999.0,yes,yes,no,116126,BD2A3,AOML,AGULHAS,South
2015-01-09T19:00:02Z,1420830003,2015,19,0,9.7917,9.8077,-51.15083,-25.30722,954.5,-0.05,-999.0,yes,yes,no,116126,BD2A3,AOML,AGULHAS,South
2015-01-09T19:59:57Z,1420833597,2015,20,0,9.8333,9.8348,-51.13806,-25.30222,971.9,4.45,-999.0,yes,yes,no,116126,BD2A3,AOML,AGULHAS,South
2015-01-09T21:00:00Z,1420837200,2015,21,0,9.875,9.8767,-51.12306,-25.27889,971.8,4.45,-999.0,yes,yes,no,116126,BD2A3,AOML,AGULHAS,South
2015-01-09T22:00:02Z,1420840803,2015,22,0,9.9167,9.8767,-51.12306,-25.27889,974.4,4.4,-999.0,yes,yes,no,116126,BD2A3,AOML,AGULHAS,South
2015-01-09T22:59:57Z,1420844397,2015,23,0,9.9583,9.9535,-51.08528,-25.27167,978.1,4.2,-999.0,yes,yes,no,116126,BD2A3,AOML,AGULHAS,South
2015-01-10T00:00:00Z,1420848000,2015,0,0,10.0,9.9863,-51.05944,-25.24917,981.6,4.1,-999.0,yes,yes,no,116126,BD2A3,AOML,AGULHAS,South
2015-01-10T01:00:02Z,1420851603,2015,1,0,10.0417,9.9863,-51.05944,-25.24917,984.7,4.0,-999.0,yes,yes,no,116126,BD2A3,AOML,AGULHAS,South
2015-01-10T01:59:57Z,1420855197,2015,2,0,10.0833,10.1087,-50.98222,-25.27472,986.9,4.0,-999.0,yes,yes,no,116126,BD2A3,AOML,AGULHAS,South
2015-01-10T03:00:00Z,1420858800,2015,3,0,10.125,10.1121,-50.98361,-25.27139,988.6,3.95,-999.0,yes,yes,no,116126,BD2A3,AOML,AGULHAS,South
2015-01-10T04:00:02Z,1420862403,2015,4,0,10.1667,10.1784,-50.94917,-25.27278,989.9,3.9,-999.0,yes,yes,no,116126,BD2A3,AOML,AGULHAS,South
2015-01-10T04:59:57Z,1420865997,2015,5,0,10.2083,10.2139,-50.93806,-25.27778,991.3,3.9,-999.0,yes,yes,no,116126,BD2A3,AOML,AGULHAS,South
2015-01-10T06:00:00Z,1420869600,2015,6,0,10.25,10.1818,-50.96056,-25.2625,992.5,3.9,-999.0,yes,yes,no,116126,BD2A3,AOML,AGULHAS,South
2015-01-10T07:00:02Z,1420873203,2015,7,0,10.2917,10.3388,-50.92056,-25.26889,993.7,3.9,-999.0,yes,yes,no,116126,BD2A3,AOML,AGULHAS,South
2015-01-10T07:59:57Z,1420876797,2015,8,0,10.3333,10.3388,-50.92056,-25.26889,994.8,3.9,-999.0,yes,yes,no,116126,BD2A3,AOML,AGULHAS,South
2015-01-10T09:00:00Z,1420880400,2015,9,0,10.375,10.3922,-50.91444,-25.25444,995.9,3.9,-999.0,yes,yes,no,116126,BD2A3,AOML,AGULHAS,South
2015-01-10T10:00:02Z,1420884003,2015,10,0,10.4167,10.4075,-50.92444,-25.26861,996.3,3.9,-999.0,yes,yes,no,116126,BD2A3,AOML,AGULHAS,South
2015-01-10T10:59:57Z,1420887597,2015,11,0,10.4583,10.463,-50.90056,-25.22611,996.7,3.9,-999.0,yes,yes,no,116126,BD2A3,AOML,AGULHAS,South
2015-01-10T12:00:00Z,1420891200,2015,12,0,10.5,10.4267,-50.90861,-25.25472,997.0,3.95,-999.0,yes,yes,no,116126,BD2A3,AOML,AGULHAS,South
2015-01-10T13:00:02Z,1420894803,2015,13,0,10.5417,10.463,-50.90056,-25.22611,997.2,3.9,-999.0,yes,yes,no,116126,BD2A3,AOML,AGULHAS,South
2015-01-10T13:59:57Z,1420898397,2015,14,0,10.5833,10.6216,-50.8525,-25.14583,997.6,3.9,-999.0,yes,yes,no,116126,BD2A3,AOML,AGULHAS,South
2015-01-10T15:00:00Z,1420902000,2015,15,0,10.625,10.6216,-50.8525,-25.14583,998.5,3.95,-999.0,yes,yes,no,116126,BD2A3,AOML,AGULHAS,South
2015-01-10T16:00:02Z,1420905603,2015,16,0,10.6667,10.6898,-50.82778,-25.12333,999.6,3.95,-999.0,yes,yes,no,116126,BD2A3,AOML,AGULHAS,South
2015-01-10T16:59:57Z,1420909197,2015,17,0,10.7083,10.69,-50.82944,-25.10611,1000.1,4.0,-999.0,yes,yes,no,116126,BD2A3,AOML,AGULHAS,South
2015-01-10T18:00:00Z,1420912800,2015,18,0,10.75,10.7601,-50.81444,-25.09278,1000.7,4.0,-999.0,yes,yes,no,116126,BD2A3,AOML,AGULHAS,South
2015-01-10T19:00:02Z,1420916403,2015,19,0,10.7917,10.8122,-50.80972,-25.08944,1001.1,4.0,-999.0,yes,yes,no,116126,BD2A3,AOML,AGULHAS,South
2015-01-10T19:59:57Z,1420919997,2015,20,0,10.8333,10.8295,-50.81,-25.07,1001.4,4.0,-999.0,yes,yes,no,116126,BD2A3,AOML,AGULHAS,South
2015-01-10T21:00:00Z,1420923600,2015,21,0,10.875,10.8587,-50.81139,-25.06722,1001.8,4.0,-999.0,yes,yes,no,116126,BD2A3,AOML,AGULHAS,South
2015-01-10T22:00:02Z,1420927203,2015,22,0,10.9167,10.9388,-50.8175,-25.05528,1002.0,4.0,-999.0,yes,yes,no,116126,BD2A3,AOML,AGULHAS,South
2015-01-10T22:59:57Z,1420930797,2015,23,0,10.9583,10.972,-50.82222,-25.02583,1002.5,4.0,-999.0,yes,yes,no,116126,BD2A3,AOML,AGULHAS,South
2015-01-11T00:00:00Z,1420934400,2015,0,0,11.0,11.0067,-50.82444,-25.01722,1002.8,4.0,-999.0,yes,yes,no,116126,BD2A3,AOML,AGULHAS,South
2015-01-11T01:00:02Z,1420938003,2015,1,0,11.0417,11.0412,-50.84028,-24.99556,1003.1,4.0,-999.0,yes,yes,no,116126,BD2A3,AOML,AGULHAS,South
2015-01-11T01:59:57Z,1420941597,2015,2,0,11.0833,11.101,-50.84222,-24.94222,1003.4,4.0,-999.0,yes,yes,no,116126,BD2A3,AOML,AGULHAS,South
2015-01-11T03:00:00Z,1420945200,2015,3,0,11.125,11.1059,-50.83167,-24.95111,1003.3,4.0,-999.0,yes,yes,no,116126,BD2A3,AOML,AGULHAS,South
2015-01-11T04:00:02Z,1420948803,2015,4,0,11.1667,11.1698,-50.82694,-24.90472,1003.1,3.95,-999.0,yes,yes,no,116126,BD2A3,AOML,AGULHAS,South
2015-01-11T04:00:02Z,1420948803,2015,4,0,11.1667,11.1698,-50.82611,-24.90361,1003.1,3.95,-999.0,yes,yes,no,116126,BD2A3,AOML,AGULHAS,South
2015-01-11T04:59:57Z,1420952397,2015,5,0,11.2083,11.1736,-50.82861,-24.89694,1003.3,3.95,-999.0,yes,yes,no,116126,BD2A3,AOML,AGULHAS,South
2015-01-11T04:59:57Z,1420952397,2015,5,0,11.2083,11.1736,-50.82861,-24.89667,1003.3,3.95,-999.0,yes,yes,no,116126,BD2A3,AOML,AGULHAS,South
2015-01-11T06:00:00Z,1420956000,2015,6,0,11.25,11.2443,-50.82667,-24.84889,1002.9,3.95,-999.0,yes,yes,no,116126,BD2A3,AOML,AGULHAS,South
2015-01-11T06:00:00Z,1420956000,2015,6,0,11.25,11.2443,-50.82667,-24.84861,1002.9,3.95,-999.0,yes,yes,no,116126,BD2A3,AOML,AGULHAS,South
2015-01-11T07:00:02Z,1420959603,2015,7,0,11.2917,11.3197,-50.82722,-24.82528,1003.3,3.95,-999.0,yes,yes,no,116126,BD2A3,AOML,AGULHAS,South
2015-01-11T07:59:57Z,1420963197,2015,8,0,11.3333,11.3197,-50.82722,-24.82528,1003.2,3.95,-999.0,yes,yes,no,116126,BD2A3,AOML,AGULHAS,South
2015-01-11T09:00:00Z,1420966800,2015,9,0,11.375,11.3805,-50.82167,-24.80583,1003.2,3.95,-999.0,yes,yes,no,116126,BD2A3,AOML,AGULHAS,South
2015-01-11T10:00:02Z,1420970403,2015,10,0,11.4167,11.4166,-50.83472,-24.81556,1003.0,4.0,-999.0,yes,yes,no,116126,BD2A3,AOML,AGULHAS,South
2015-01-11T10:59:57Z,1420973997,2015,11,0,11.4583,11.4863,-50.85139,-24.77583,1003.0,4.0,-999.0,yes,yes,no,116126,BD2A3,AOML,AGULHAS,South
2015-01-11T12:00:00Z,1420977600,2015,12,0,11.5,11.4863,-50.85139,-24.77583,1002.7,4.0,-999.0,yes,yes,no,116126,BD2A3,AOML,AGULHAS,South
2015-01-11T13:00:02Z,1420981203,2015,13,0,11.5417,11.4863,-50.85139,-24.77583,1002.4,4.05,-999.0,yes,yes,no,116126,BD2A3,AOML,AGULHAS,South
2015-01-11T13:59:57Z,1420984797,2015,14,0,11.5833,11.6118,-50.88444,-24.72889,1001.8,4.1,-999.0,yes,yes,no,116126,BD2A3,AOML,AGULHAS,South
2015-01-11T15:00:00Z,1420988400,2015,15,0,11.625,11.6118,-50.88444,-24.72889,1001.3,4.15,-999.0,yes,yes,no,116126,BD2A3,AOML,AGULHAS,South
2015-01-11T16:00:02Z,1420992003,2015,16,0,11.6667,11.6822,-50.89861,-24.69222,1000.8,4.1,-999.0,yes,yes,no,116126,BD2A3,AOML,AGULHAS,South
2015-01-11T16:00:02Z,1420992003,2015,16,0,11.6667,11.6118,-50.88444,-24.72889,1000.8,4.1,-999.0,yes,yes,no,116126,BD2A3,AOML,AGULHAS,South
2015-01-11T16:59:57Z,1420995597,2015,17,0,11.7083,11.7206,-50.91028,-24.665,999.9,4.15,-999.0,yes,yes,no,116126,BD2A3,AOML,AGULHAS,South
2015-01-11T18:00:00Z,1420999200,2015,18,0,11.75,11.7516,-50.90333,-24.63306,999.2,4.15,-999.0,yes,yes,no,116126,BD2A3,AOML,AGULHAS,South
2015-01-11T19:00:02Z,1421002803,2015,19,0,11.7917,11.7525,-50.91111,-24.65889,998.2,4.15,-999.0,yes,yes,no,116126,BD2A3,AOML,AGULHAS,South
2015-01-11T19:00:02Z,1421002803,2015,19,0,11.7917,11.7525,-50.91111,-24.66028,998.2,4.15,-999.0,yes,yes,no,116126,BD2A3,AOML,AGULHAS,South
2015-01-11T19:59:57Z,1421006397,2015,20,0,11.8333,11.8431,-50.92611,-24.62083,997.2,4.15,-999.0,yes,yes,no,116126,BD2A3,AOML,AGULHAS,South
2015-01-11T19:59:57Z,1421006397,2015,20,0,11.8333,11.8431,-50.92611,-24.62056,997.2,4.15,-999.0,yes,yes,no,116126,BD2A3,AOML,AGULHAS,South
2015-01-11T21:00:00Z,1421010000,2015,21,0,11.875,11.8431,-50.92611,-24.62083,995.6,4.15,-999.0,yes,yes,no,116126,BD2A3,AOML,AGULHAS,South
2015-01-11T21:00:00Z,1421010000,2015,21,0,11.875,11.8431,-50.92611,-24.62056,995.6,4.15,-999.0,yes,yes,no,116126,BD2A3,AOML,AGULHAS,South
2015-01-11T22:00:02Z,1421013603,2015,22,0,11.9167,11.8431,-50.92611,-24.62083,993.2,4.15,-999.0,yes,yes,no,116126,BD2A3,AOML,AGULHAS,South
2015-01-11T22:00:02Z,1421013603,2015,22,0,11.9167,11.8431,-50.92611,-24.62056,993.2,4.15,-999.0,yes,yes,no,116126,BD2A3,AOML,AGULHAS,South
2015-01-11T22:59:57Z,1421017197,2015,23,0,11.9583,11.9572,-50.96028,-24.59194,990.8,4.15,-999.0,yes,yes,no,116126,BD2A3,AOML,AGULHAS,South
2015-01-12T00:00:00Z,1421020800,2015,0,0,12.0,11.9572,-50.96028,-24.59194,988.2,4.15,-999.0,yes,yes,no,116126,BD2A3,AOML,AGULHAS,South
2015-01-12T01:00:02Z,1421024403,2015,1,0,12.0417,12.0264,-50.98,-24.59278,985.6,4.15,-999.0,yes,yes,no,116126,BD2A3,AOML,AGULHAS,South
2015-01-12T01:59:57Z,1421027997,2015,2,0,12.0833,12.093,-50.99556,-24.58722,984.0,4.1,-999.0,yes,yes,no,116126,BD2A3,AOML,AGULHAS,South
2015-01-12T03:00:00Z,1421031600,2015,3,0,12.125,12.093,-50.99556,-24.58722,984.4,4.1,-999.0,yes,yes,no,116126,BD2A3,AOML,AGULHAS,South
2015-01-12T04:00:02Z,1421035203,2015,4,0,12.1667,12.1665,-51.01056,-24.57194,985.6,4.1,-999.0,yes,yes,no,116126,BD2A3,AOML,AGULHAS,South
2015-01-12T04:59:57Z,1421038797,2015,5,0,12.2083,12.2357,-51.03694,-24.51139,985.6,4.15,-999.0,yes,yes,no,116126,BD2A3,AOML,AGULHAS,South
2015-01-12T06:00:00Z,1421042400,2015,6,0,12.25,12.2499,-51.03361,-24.53083,985.1,4.15,-999.0,yes,yes,no,116126,BD2A3,AOML,AGULHAS,South
2015-01-12T07:00:02Z,1421046003,2015,7,0,12.2917,12.2944,-51.05083,-24.51056,984.8,4.15,-999.0,yes,yes,no,116126,BD2A3,AOML,AGULHAS,South
2015-01-12T07:59:57Z,1421049597,2015,8,0,12.3333,12.3046,-51.04556,-24.51139,984.2,4.15,-999.0,yes,yes,no,116126,BD2A3,AOML,AGULHAS,South
2015-01-12T09:00:00Z,1421053200,2015,9,0,12.375,12.3046,-51.04556,-24.51139,983.4,4.15,-999.0,yes,yes,no,116126,BD2A3,AOML,AGULHAS,South
2015-01-12T10:00:02Z,1421056803,2015,10,0,12.4167,12.3993,-51.06389,-24.51361,981.8,4.2,-999.0,yes,yes,no,116126,BD2A3,AOML,AGULHAS,South
2015-01-12T10:59:57Z,1421060397,2015,11,0,12.4583,12.4719,-51.07861,-24.48111,980.7,4.2,-999.0,yes,yes,no,116126,BD2A3,AOML,AGULHAS,South
2015-01-12T12:00:00Z,1421064000,2015,12,0,12.5,12.5041,-51.08778,-24.49167,980.0,4.2,-999.0,yes,yes,no,116126,BD2A3,AOML,AGULHAS,South
2015-01-12T13:00:02Z,1421067603,2015,13,0,12.5417,12.5041,-51.08778,-24.49167,979.5,4.2,-999.0,yes,yes,no,116126,BD2A3,AOML,AGULHAS,South
2015-01-12T13:59:57Z,1421071197,2015,14,0,12.5833,12.5041,-51.08778,-24.49167,978.2,4.25,-999.0,yes,yes,no,116126,BD2A3,AOML,AGULHAS,South
2015-01-12T15:00:00Z,1421074800,2015,15,0,12.625,12.674,-51.11833,-24.44889,977.5,4.2,-999.0,yes,yes,no,116126,BD2A3,AOML,AGULHAS,South
2015-01-12T16:00:02Z,1421078403,2015,16,0,12.6667,12.5041,-51.08778,-24.49167,977.1,4.2,-999.0,yes,yes,no,116126,BD2A3,AOML,AGULHAS,South
2015-01-12T16:59:57Z,1421081997,2015,17,0,12.7083,12.674,-51.11833,-24.44889,977.7,4.2,-999.0,yes,yes,no,116126,BD2A3,AOML,AGULHAS,South
2015-01-12T18:00:00Z,1421085600,2015,18,0,12.75,12.746,-51.12472,-24.43556,978.8,4.2,-999.0,yes,yes,no,116126,BD2A3,AOML,AGULHAS,South
2015-01-12T19:00:02Z,1421089203,2015,19,0,12.7917,12.8141,-51.12389,-24.40889,979.9,4.2,-999.0,yes,yes,no,116126,BD2A3,AOML,AGULHAS,South
2015-01-12T19:59:57Z,1421092797,2015,20,0,12.8333,12.8389,-51.1325,-24.41611,980.9,4.2,-999.0,yes,yes,no,116126,BD2A3,AOML,AGULHAS,South
2015-01-12T21:00:00Z,1421096400,2015,21,0,12.875,12.8389,-51.1325,-24.41611,982.3,4.2,-999.0,yes,yes,no,116126,BD2A3,AOML,AGULHAS,South
2015-01-12T22:00:02Z,1421100003,2015,22,0,12.9167,12.8936,-51.13194,-24.38722,984.0,4.25,-999.0,yes,yes,no,116126,BD2A3,AOML,AGULHAS,South
2015-01-12T22:59:57Z,1421103597,2015,23,0,12.9583,12.8936,-51.13194,-24.38722,985.3,4.3,-999.0,yes,yes,no,116126,BD2A3,AOML,AGULHAS,South
2015-01-13T00:00:00Z,1421107200,2015,0,0,13.0,13.0088,-51.13722,-24.37917,986.7,4.3,-999.0,yes,yes,no,116126,BD2A3,AOML,AGULHAS,South
2015-01-13T01:00:02Z,1421110803,2015,1,0,13.0417,13.0088,-51.13722,-24.37917,988.6,4.3,-999.0,yes,yes,no,116126,BD2A3,AOML,AGULHAS,South
2015-01-13T01:59:57Z,1421114397,2015,2,0,13.0833,13.0877,-51.13944,-24.34972,989.7,4.3,-999.0,yes,yes,no,116126,BD2A3,AOML,AGULHAS,South
2015-01-13T03:00:00Z,1421118000,2015,3,0,13.125,13.1553,-51.14667,-24.36972,990.3,4.25,-999.0,yes,yes,no,116126,BD2A3,AOML,AGULHAS,South
2015-01-13T04:00:02Z,1421121603,2015,4,0,13.1667,13.1611,-51.145,-24.36139,990.8,4.25,-999.0,yes,yes,no,116126,BD2A3,AOML,AGULHAS,South
2015-01-13T04:59:57Z,1421125197,2015,5,0,13.2083,13.228,-51.15139,-24.34056,991.2,4.25,-999.0,yes,yes,no,116126,BD2A3,AOML,AGULHAS,South
2015-01-13T06:00:00Z,1421128800,2015,6,0,13.25,13.2287,-51.15972,-24.34194,991.6,4.25,-999.0,yes,yes,no,116126,BD2A3,AOML,AGULHAS,South
2015-01-13T07:00:02Z,1421132403,2015,7,0,13.2917,13.2976,-51.17111,-24.33306,991.4,4.25,-999.0,yes,yes,no,116126,BD2A3,AOML,AGULHAS,South
2015-01-13T07:59:57Z,1421135997,2015,8,0,13.3333,13.3421,-51.18278,-24.32139,991.0,4.25,-999.0,yes,yes,no,116126,BD2A3,AOML,AGULHAS,South
2015-01-13T09:00:00Z,1421139600,2015,9,0,13.375,13.3848,-51.19167,-24.32417,991.4,4.3,-999.0,yes,yes,no,116126,BD2A3,AOML,AGULHAS,South
2015-01-13T10:00:02Z,1421143203,2015,10,0,13.4167,13.4196,-51.19833,-24.31306,990.7,4.3,-999.0,yes,yes,no,116126,BD2A3,AOML,AGULHAS,South
2015-01-13T10:59:57Z,1421146797,2015,11,0,13.4583,13.4573,-51.20722,-24.29222,989.0,4.35,-999.0,yes,yes,no,116126,BD2A3,AOML,AGULHAS,South
2015-01-13T12:00:00Z,1421150400,2015,12,0,13.5,13.4883,-51.20944,-24.30722,988.3,4.4,-999.0,yes,yes,no,116126,BD2A3,AOML,AGULHAS,South
2015-01-13T13:00:02Z,1421154003,2015,13,0,13.5417,13.4883,-51.20944,-24.30722,987.4,4.4,-999.0,yes,yes,no,116126,BD2A3,AOML,AGULHAS,South
2015-01-13T13:59:57Z,1421157597,2015,14,0,13.5833,13.6676,-51.24194,-24.23972,985.7,4.4,-999.0,yes,yes,no,116126,BD2A3,AOML,AGULHAS,South
2015-01-13T15:00:00Z,1421161200,2015,15,0,13.625,13.6676,-51.24194,-24.23972,983.8,4.35,-999.0,yes,yes,no,116126,BD2A3,AOML,AGULHAS,South
2015-01-13T16:00:02Z,1421164803,2015,16,0,13.6667,13.6676,-51.24194,-24.23972,982.1,4.35,-999.0,yes,yes,no,116126,BD2A3,AOML,AGULHAS,South
2015-01-13T16:59:57Z,1421168397,2015,17,0,13.7083,13.7377,-51.24861,-24.22639,980.8,4.35,-999.0,yes,yes,no,116126,BD2A3,AOML,AGULHAS,South
2015-01-13T18:00:00Z,1421172000,2015,18,0,13.75,13.7445,-51.25167,-24.21389,979.6,4.35,-999.0,yes,yes,no,116126,BD2A3,AOML,AGULHAS,South
2015-01-13T19:00:02Z,1421175603,2015,19,0,13.7917,13.8068,-51.26972,-24.21417,978.6,4.3,-999.0,yes,yes,no,116126,BD2A3,AOML,AGULHAS,South
2015-01-13T19:59:57Z,1421179197,2015,20,0,13.8333,13.8154,-51.26611,-24.23333,978.0,4.3,-999.0,yes,yes,no,116126,BD2A3,AOML,AGULHAS,South
2015-01-13T21:00:00Z,1421182800,2015,21,0,13.875,13.8765,-51.28667,-24.225,977.9,4.3,-999.0,yes,yes,no,116126,BD2A3,AOML,AGULHAS,South
2015-01-13T22:00:02Z,1421186403,2015,22,0,13.9167,13.928,-51.30222,-24.20528,978.3,4.3,-999.0,yes,yes,no,116126,BD2A3,AOML,AGULHAS,South
2015-01-13T22:59:57Z,1421189997,2015,23,0,13.9583,13.9657,-51.32028,-24.2125,978.8,4.3,-999.0,yes,yes,no,116126,BD2A3,AOML,AGULHAS,South
2015-01-14T00:00:00Z,1421193600,2015,0,0,14.0,13.9657,-51.32028,-24.2125,979.3,4.3,-999.0,yes,yes,no,116126,BD2A3,AOML,AGULHAS,South
2015-01-14T01:00:02Z,1421197203,2015,1,0,14.0417,14.0662,-51.34944,-24.1925,980.3,4.3,-999.0,yes,yes,no,116126,BD2A3,AOML,AGULHAS,South
2015-01-14T01:59:57Z,1421200797,2015,2,0,14.0833,14.0821,-51.34972,-24.17611,981.6,4.25,-999.0,yes,yes,no,116126,BD2A3,AOML,AGULHAS,South
2015-01-14T03:00:00Z,1421204400,2015,3,0,14.125,14.1473,-51.35861,-24.15778,983.0,4.25,-999.0,yes,yes,no,116126,BD2A3,AOML,AGULHAS,South
2015-01-14T04:00:02Z,1421208003,2015,4,0,14.1667,14.1518,-51.36056,-24.14694,984.3,4.25,-999.0,yes,yes,no,116126,BD2A3,AOML,AGULHAS,South
2015-01-14T04:59:57Z,1421211597,2015,5,0,14.2083,14.2143,-51.35861,-24.13944,985.7,4.25,-999.0,yes,yes,no,116126,BD2A3,AOML,AGULHAS,South
2015-01-14T06:00:00Z,1421215200,2015,6,0,14.25,14.2844,-51.36528,-24.12306,987.5,4.25,-999.0,yes,yes,no,116126,BD2A3,AOML,AGULHAS,South
2015-01-14T07:00:02Z,1421218803,2015,7,0,14.2917,14.3188,-51.3725,-24.11417,989.3,4.3,-999.0,yes,yes,no,116126,BD2A3,AOML,AGULHAS,South
2015-01-14T07:59:57Z,1421222397,2015,8,0,14.3333,14.3188,-51.3725,-24.11417,991.3,4.25,-999.0,yes,yes,no,116126,BD2A3,AOML,AGULHAS,South
2015-01-14T09:00:00Z,1421226000,2015,9,0,14.375,14.3723,-51.37667,-24.1275,993.0,4.25,-999.0,yes,yes,no,116126,BD2A3,AOML,AGULHAS,South
2015-01-14T10:00:02Z,1421229603,2015,10,0,14.4167,14.4431,-51.39028,-24.09139,994.8,4.25,-999.0,yes,yes,no,116126,BD2A3,AOML,AGULHAS,South
2015-01-14T10:59:57Z,1421233197,2015,11,0,14.4583,14.4431,-51.39,-24.09278,996.1,4.3,-999.0,yes,yes,no,116126,BD2A3,AOML,AGULHAS,South
2015-01-14T10:59:57Z,1421233197,2015,11,0,14.4583,14.4431,-51.39028,-24.09139,996.1,4.3,-999.0,yes,yes,no,116126,BD2A3,AOML,AGULHAS,South
2015-01-14T12:00:00Z,1421236800,2015,12,0,14.5,14.4431,-51.39,-24.09278,997.6,4.3,-999.0,yes,yes,no,116126,BD2A3,AOML,AGULHAS,South
2015-01-14T12:00:00Z,1421236800,2015,12,0,14.5,14.4431,-51.39028,-24.09139,997.6,4.3,-999.0,yes,yes,no,116126,BD2A3,AOML,AGULHAS,South
2015-01-14T13:00:02Z,1421240403,2015,13,0,14.5417,14.4755,-51.39222,-24.09917,998.9,4.35,-999.0,yes,yes,no,116126,BD2A3,AOML,AGULHAS,South
2015-01-14T13:00:02Z,1421240403,2015,13,0,14.5417,14.4755,-51.39222,-24.09861,998.9,4.35,-999.0,yes,yes,no,116126,BD2A3,AOML,AGULHAS,South
2015-01-14T13:59:57Z,1421243997,2015,14,0,14.5833,14.6591,-51.43556,-24.04889,999.9,4.35,-999.0,yes,yes,no,116126,BD2A3,AOML,AGULHAS,South
2015-01-14T13:59:57Z,1421243997,2015,14,0,14.5833,14.6591,-51.43528,-24.04833,999.9,4.35,-999.0,yes,yes,no,116126,BD2A3,AOML,AGULHAS,South
2015-01-14T15:00:00Z,1421247600,2015,15,0,14.625,14.4755,-51.39222,-24.09917,1001.1,4.4,-999.0,yes,yes,no,116126,BD2A3,AOML,AGULHAS,South
2015-01-14T15:00:00Z,1421247600,2015,15,0,14.625,14.4755,-51.39222,-24.09861,1001.1,4.4,-999.0,yes,yes,no,116126,BD2A3,AOML,AGULHAS,South
2015-01-14T16:00:02Z,1421251203,2015,16,0,14.6667,14.6591,-51.43556,-24.04889,1002.2,4.4,-999.0,yes,yes,no,116126,BD2A3,AOML,AGULHAS,South
2015-01-14T16:00:02Z,1421251203,2015,16,0,14.6667,14.6591,-51.43528,-24.04833,1002.2,4.4,-999.0,yes,yes,no,116126,BD2A3,AOML,AGULHAS,South
2015-01-14T16:59:57Z,1421254797,2015,17,0,14.7083,14.7244,-51.44917,-23.99833,1003.5,4.4,-999.0,yes,yes,no,116126,BD2A3,AOML,AGULHAS,South
2015-01-14T16:59:57Z,1421254797,2015,17,0,14.7083,14.7244,-51.44889,-23.99806,1003.5,4.4,-999.0,yes,yes,no,116126,BD2A3,AOML,AGULHAS,South
2015-01-14T19:00:02Z,1421262003,2015,19,0,14.7917,14.7993,-51.46139,-24.00278,1005.2,4.4,-999.0,yes,yes,no,116126,BD2A3,AOML,AGULHAS,South
2015-01-14T19:00:02Z,1421262003,2015,19,0,14.7917,14.7993,-51.46111,-24.00389,1005.2,4.4,-999.0,yes,yes,no,116126,BD2A3,AOML,AGULHAS,South
2015-01-14T19:59:57Z,1421265597,2015,20,0,14.8333,14.7993,-51.46139,-24.00278,1005.9,4.4,-999.0,yes,yes,no,116126,BD2A3,AOML,AGULHAS,South
2015-01-14T19:59:57Z,1421265597,2015,20,0,14.8333,14.7993,-51.46111,-24.00389,1005.9,4.4,-999.0,yes,yes,no,116126,BD2A3,AOML,AGULHAS,South
2015-01-14T21:00:00Z,1421269200,2015,21,0,14.875,14.8706,-51.48,-23.97389,1006.4,4.4,-999.0,yes,yes,no,116126,BD2A3,AOML,AGULHAS,South
2015-01-14T22:00:02Z,1421272803,2015,22,0,14.9167,14.9506,-51.495,-23.95167,1006.8,4.4,-999.0,yes,yes,no,116126,BD2A3,AOML,AGULHAS,South
2015-01-14T22:59:57Z,1421276397,2015,23,0,14.9583,14.9506,-51.495,-23.95167,1007.1,4.4,-999.0,yes,yes,no,116126,BD2A3,AOML,AGULHAS,South
2015-01-15T00:00:00Z,1421280000,2015,0,0,15.0,15.0186,-51.50694,-23.92917,1007.2,4.4,-999.0,yes,yes,no,116126,BD2A3,AOML,AGULHAS,South
2015-01-15T01:00:02Z,1421283603,2015,1,0,15.0417,15.0186,-51.50694,-23.93111,1007.3,4.4,-999.0,yes,yes,no,116126,BD2A3,AOML,AGULHAS,South
2015-01-15T01:59:57Z,1421287197,2015,2,0,15.0833,15.0746,-51.5175,-23.92833,1006.8,4.4,-999.0,yes,yes,no,116126,BD2A3,AOML,AGULHAS,South
2015-01-15T03:00:00Z,1421290800,2015,3,0,15.125,15.1393,-51.53278,-23.91917,1005.8,4.4,-999.0,yes,yes,no,116126,BD2A3,AOML,AGULHAS,South
2015-01-15T04:00:02Z,1421294403,2015,4,0,15.1667,15.1435,-51.54111,-23.90389,1004.8,4.4,-999.0,yes,yes,no,116126,BD2A3,AOML,AGULHAS,South
2015-01-15T04:59:57Z,1421297997,2015,5,0,15.2083,15.2108,-51.56194,-23.87917,1003.5,4.4,-999.0,yes,yes,no,116126,BD2A3,AOML,AGULHAS,South
2015-01-15T07:00:02Z,1421305203,2015,7,0,15.2917,15.299,-51.60222,-23.85333,1001.4,4.4,-999.0,yes,yes,no,116126,BD2A3,AOML,AGULHAS,South
2015-01-15T07:59:57Z,1421308797,2015,8,0,15.3333,15.337,-51.59583,-23.84361,1000.2,4.4,-999.0,yes,yes,no,116126,BD2A3,AOML,AGULHAS,South
2015-01-15T09:00:00Z,1421312400,2015,9,0,15.375,15.3679,-51.62806,-23.83194,998.3,4.4,-999.0,yes,yes,no,116126,BD2A3,AOML,AGULHAS,South
2015-01-15T10:00:02Z,1421316003,2015,10,0,15.4167,15.4282,-51.64111,-23.82417,995.9,4.4,-999.0,yes,yes,no,116126,BD2A3,AOML,AGULHAS,South